Theta_e
321 322 323 323 323 326 329 329 328 330 335 335 333 333 333 332 335 339 340 339 341 344 346 345 348 353 351 349 350 349 349 349 348 348 349 349 349 349 349 349 349 349 347 346 346 347 346 347 346 347 347 347 348 347 347 347 347 347 346 346 347 347 347 347 348 348 347 345 345 346 347 347 347 347 348 348 348 348 347 346 347 348 346 347 345 342
321 321 322 324 324 325 329 331 330 330 335 336 334 332 331 331 334 339 340 339 341 343 344 347 351 352 349 349 349 348 349 348 348 347 347 348 348 348 349 349 349 349 348 347 347 347 347 347 347 347 348 348 348 347 347 347 347 347 347 347 347 347 347 348 348 349 349 348 347 347 347 347 348 347 347 347 347 346 346 346 347 347 347 346 343 339
321 321 321 323 323 323 327 329 329 331 332 333 334 332 330 334 335 335 340 343 340 341 346 348 349 349 348 348 347 347 348 347 347 347 346 348 347 347 348 348 348 348 348 348 347 347 347 347 347 347 347 348 347 347 347 347 347 347 347 347 347 348 348 347 348 348 349 349 348 347 347 348 348 348 347 347 347 347 346 346 347 347 345 344 340 337
320 322 322 320 321 322 326 328 329 330 330 331 334 331 330 337 334 329 335 342 341 342 347 350 354 355 350 348 348 346 347 348 347 347 346 346 347 346 347 347 347 347 347 347 347 347 348 348 347 347 347 347 346 347 347 347 347 347 347 347 347 348 348 347 347 348 348 348 348 348 349 350 350 349 349 349 347 346 346 345 345 344 342 341 338 334
322 323 321 320 323 324 325 329 331 329 330 331 332 331 334 337 334 333 337 340 343 342 344 350 354 356 352 349 350 347 345 347 346 345 346 345 346 347 347 347 347 347 347 347 347 347 347 348 347 346 346 346 346 346 347 347 346 346 347 347 347 348 348 348 348 347 348 349 350 350 350 351 351 349 349 348 346 345 344 342 340 340 339 338 335 333
322 321 320 322 325 324 324 329 331 330 330 329 330 332 335 338 338 339 340 338 339 337 343 346 341 347 356 350 348 348 346 347 346 345 345 345 345 346 346 346 346 347 347 347 347 346 346 347 346 346 346 346 345 345 347 347 347 347 347 347 347 348 348 348 348 348 348 349 349 349 350 349 349 348 346 345 344 343 341 338 337 338 338 337 336 335
322 320 321 324 324 325 325 325 328 330 328 327 332 333 331 336 339 339 339 338 336 335 342 343 336 343 354 349 346 348 347 347 346 345 345 345 346 346 346 346 346 346 346 346 346 346 345 346 345 345 346 347 347 347 347 348 348 347 347 347 348 348 348 347 348 348 348 349 349 348 347 346 346 345 344 343 342 341 339 339 339 338 338 337 337 337
322 321 322 325 325 325 324 324 327 329 327 329 336 334 330 335 339 339 337 336 339 340 341 343 340 338 343 347 347 348 348 348 348 346 345 344 344 346 347 347 346 346 346 346 345 346 346 346 346 346 347 348 348 348 348 349 349 347 347 347 348 347 347 347 348 347 347 347 348 347 345 344 342 342 341 341 341 340 338 339 340 340 338 338 338 337
322 323 322 324 324 324 327 329 330 327 328 335 337 332 329 331 335 338 336 335 338 338 337 342 341 334 340 352 349 345 348 348 347 346 345 344 344 345 347 347 347 347 346 346 346 346 346 346 346 347 348 348 348 348 348 349 348 347 347 347 348 347 346 347 348 347 346 346 346 345 344 341 340 339 340 341 341 340 339 338 339 339 338 338 337 335
322 322 321 322 323 324 329 333 331 328 329 334 331 328 331 334 335 336 336 336 335 333 334 340 339 332 340 353 348 343 347 346 346 346 343 343 344 344 346 347 348 348 347 347 347 346 347 347 347 347 348 349 348 348 349 350 348 347 347 348 348 348 347 347 348 347 346 345 344 343 342 340 336 336 338 339 340 342 341 339 338 338 338 337 335 333
322 322 322 323 322 323 327 328 326 328 329 327 328 329 332 337 343 347 346 340 333 333 335 337 337 333 335 346 346 343 347 346 345 345 344 342 342 343 345 346 347 348 348 347 347 347 347 348 347 348 349 349 349 348 349 350 349 347 347 349 349 349 348 347 347 346 344 342 341 341 339 335 332 333 334 334 335 338 338 338 338 337 337 336 334 331
321 321 323 324 323 323 324 324 323 326 327 326 332 332 327 332 339 340 340 334 330 334 339 337 337 334 331 341 347 343 344 346 345 345 345 343 342 342 343 344 346 347 348 348 347 347 348 348 348 348 349 350 350 348 349 350 349 348 348 349 350 349 349 348 346 344 342 340 338 337 335 332 329 330 330 327 327 328 330 333 334 335 334 334 333 331
321 321 323 323 323 324 324 325 323 323 325 327 333 330 324 327 327 326 330 331 330 334 337 335 336 335 334 340 344 342 341 342 342 343 343 342 341 342 342 343 345 346 347 348 348 348 348 348 348 348 349 350 350 349 349 349 348 348 349 350 350 349 348 346 343 341 339 337 335 332 330 328 327 327 326 324 324 324 325 327 329 329 329 329 328 329
319 320 321 321 323 324 324 324 322 324 326 325 329 327 323 325 322 323 331 331 329 333 331 331 336 337 338 344 346 343 340 339 339 339 341 341 340 341 342 343 344 345 346 347 348 348 348 348 348 348 349 350 349 349 348 349 349 349 350 352 350 348 346 343 340 338 336 334 331 328 326 325 325 324 323 322 323 323 324 325 324 323 323 324 325 326
317 318 322 322 321 324 325 324 325 331 329 325 331 330 325 328 325 324 329 327 326 330 327 329 339 338 335 342 347 341 335 336 337 338 339 339 339 341 341 342 343 344 346 347 348 348 347 348 348 348 350 350 349 349 349 348 349 350 351 352 350 345 341 338 337 336 334 332 330 326 324 324 323 322 321 321 321 322 324 324 321 319 320 322 324 323
316 317 326 324 321 323 324 324 326 331 326 324 330 328 323 330 331 325 329 334 331 328 327 330 341 344 338 338 346 345 341 338 335 336 338 337 339 340 341 342 343 344 345 346 347 348 348 348 348 349 349 350 349 349 349 349 349 350 352 351 347 342 336 334 333 332 331 330 328 325 323 323 323 322 323 324 323 322 323 323 320 318 319 321 321 320
316 319 329 325 322 324 324 325 326 326 325 325 325 324 326 330 331 327 326 331 328 324 329 331 332 335 334 337 348 352 349 342 337 337 336 335 338 339 341 342 342 344 344 346 347 347 348 348 348 349 349 349 349 348 349 348 349 350 350 349 346 340 335 332 330 329 329 329 327 325 323 323 323 323 324 325 325 324 323 321 319 318 318 319 318 318
320 322 330 326 322 323 322 324 326 324 327 327 322 325 328 325 332 336 327 326 326 324 329 329 326 327 328 339 355 350 343 344 344 341 337 335 338 338 341 341 342 344 343 345 347 346 348 349 348 349 349 348 348 347 347 348 348 350 350 349 345 338 332 330 328 327 327 327 325 325 324 323 324 326 327 327 327 325 323 319 317 316 317 317 317 317
321 321 328 328 324 325 323 321 323 323 324 327 325 327 328 323 327 332 326 325 325 325 329 328 327 330 329 338 350 343 340 345 345 344 341 340 339 338 340 341 341 343 344 344 346 347 348 349 349 350 349 348 348 347 347 347 348 350 350 349 346 338 331 329 329 328 326 326 326 325 324 323 326 328 329 329 328 325 322 318 316 315 315 316 317 317
323 320 324 328 324 323 324 321 319 320 321 324 325 324 326 328 328 327 326 327 326 327 332 328 324 331 335 339 345 343 345 345 342 347 345 339 338 337 338 341 341 343 344 344 346 347 348 349 349 349 348 348 347 346 347 348 349 349 348 348 346 341 334 331 329 327 326 326 326 325 326 326 330 333 331 328 326 324 321 318 316 315 315 316 317 317
325 320 320 326 325 321 323 323 320 321 323 322 323 322 323 325 327 326 326 328 329 330 333 329 325 334 345 346 347 345 347 346 344 349 346 337 336 338 338 340 341 342 343 344 345 345 347 348 349 350 348 348 349 348 349 349 349 349 348 347 346 343 338 332 329 327 326 325 325 326 328 329 332 335 332 326 324 323 322 320 318 315 315 316 317 318
324 324 320 321 321 319 325 328 325 324 325 324 322 323 323 323 324 323 322 326 329 328 333 331 324 332 347 348 345 344 347 345 342 345 345 337 334 337 338 339 340 342 342 343 344 344 346 348 349 349 350 350 350 350 349 349 349 348 349 346 345 344 340 333 329 327 326 325 327 328 328 329 331 334 333 327 324 323 321 321 320 317 316 317 318 320
330 331 322 318 321 323 326 327 324 323 325 325 324 324 325 326 324 319 320 326 327 324 330 330 321 331 356 355 346 345 344 339 336 338 339 336 335 337 338 339 340 341 341 342 342 343 344 346 348 349 350 350 350 349 348 348 348 348 348 346 345 345 342 337 331 328 328 328 327 327 328 329 331 334 334 329 326 325 322 320 320 319 318 318 319 323
329 329 321 319 324 326 325 327 326 325 324 323 324 326 324 324 325 323 328 333 328 325 328 326 322 339 373 369 352 344 338 334 334 336 336 335 336 338 337 339 340 340 341 341 342 343 344 346 348 348 349 350 349 349 349 349 348 348 348 347 346 345 343 340 335 332 333 330 328 328 330 331 332 335 336 330 326 326 325 322 320 319 319 318 320 324
324 327 323 318 319 321 322 324 323 322 324 325 327 328 324 326 327 327 332 331 325 327 329 325 325 341 367 370 354 346 344 342 337 334 336 336 336 338 338 339 340 340 341 342 342 344 345 346 347 347 348 348 348 348 348 348 348 348 349 348 347 345 344 344 341 338 336 333 332 333 334 335 336 336 336 333 329 327 326 324 320 319 319 319 320 324
323 330 326 318 318 319 319 321 323 325 328 329 330 327 325 327 325 326 330 323 322 330 330 329 333 341 353 356 347 346 352 353 343 334 335 337 337 338 339 339 340 341 341 342 342 343 344 345 346 347 347 347 347 347 347 347 348 348 349 349 348 346 346 347 347 345 342 338 336 336 337 339 340 337 336 337 335 328 324 323 320 320 320 318 319 323
334 334 326 322 321 320 321 326 335 337 328 324 326 326 326 327 324 329 329 323 329 334 331 340 346 335 338 346 342 345 350 352 351 340 334 337 337 338 339 339 340 341 340 342 342 343 344 344 345 346 346 346 346 346 346 346 347 348 349 350 349 349 349 349 350 351 348 344 339 338 340 341 340 339 338 340 337 328 323 323 322 322 322 318 318 322
337 329 324 328 325 322 324 329 334 335 325 322 326 324 325 327 324 326 325 326 338 332 325 350 359 333 332 347 345 348 350 348 350 341 334 337 338 338 339 339 340 340 340 342 342 342 343 343 344 345 345 345 345 345 346 346 347 348 348 349 350 351 351 350 351 351 350 348 344 342 344 344 344 344 342 342 338 329 324 324 323 324 323 319 319 323
332 325 325 328 324 324 326 325 328 331 327 327 328 325 325 327 324 324 324 330 339 328 322 348 359 338 336 347 343 345 348 344 343 338 335 338 338 338 339 338 340 341 340 341 341 342 343 343 344 344 343 344 344 344 345 346 347 347 347 348 350 351 351 351 352 351 350 350 348 348 349 349 349 349 347 345 340 330 325 324 324 325 323 321 322 323
326 329 334 326 321 325 324 322 327 327 326 327 327 327 327 326 325 324 325 330 333 329 328 343 351 343 339 343 341 338 335 332 332 332 334 337 337 338 338 338 339 340 340 341 341 341 342 342 343 343 343 344 343 344 344 344 345 346 345 348 349 350 351 351 351 351 351 351 351 351 352 351 351 350 349 348 340 329 324 323 323 324 323 322 322 322
324 335 342 328 321 324 323 324 326 323 324 325 323 327 327 324 325 323 324 330 331 330 334 339 342 342 339 343 341 331 327 331 333 333 334 336 337 337 338 338 340 339 340 341 341 341 341 342 342 342 343 343 343 343 343 343 344 344 345 347 348 349 350 350 351 351 351 351 352 352 352 351 351 349 349 348 338 328 325 324 325 325 322 320 322 323
330 336 340 328 320 322 323 324 324 322 323 321 319 324 324 323 325 323 325 334 332 331 337 337 335 337 339 344 341 331 331 336 335 332 332 334 337 337 337 339 339 339 340 341 341 341 341 341 342 342 342 342 342 342 342 342 343 344 344 346 346 348 349 350 350 350 351 351 352 352 352 352 351 348 348 345 336 331 330 328 329 326 321 321 325 327
335 332 334 330 323 323 324 323 324 322 319 319 322 324 322 323 327 324 327 336 335 334 336 333 330 337 342 342 340 338 341 340 336 332 332 334 336 337 338 339 338 339 341 341 340 341 341 341 341 341 341 342 342 342 342 343 343 343 343 344 345 346 347 348 349 349 350 351 352 352 352 351 349 348 346 341 337 337 336 331 330 326 321 323 328 328
339 334 336 333 324 324 327 325 325 321 317 326 338 335 327 325 325 324 328 336 339 339 342 340 339 344 345 340 339 342 341 337 334 332 332 334 336 337 338 338 339 340 340 340 340 340 341 341 341 341 341 342 341 340 340 340 339 340 342 344 345 345 346 347 348 348 349 350 351 352 351 351 348 346 344 338 334 337 336 332 330 326 323 324 328 328
338 337 338 334 326 327 330 325 321 321 326 340 347 338 332 327 324 331 338 341 343 344 349 351 348 349 348 339 333 334 332 331 331 331 332 334 334 336 338 338 339 340 339 340 340 340 340 341 341 341 339 337 336 334 334 334 333 334 336 339 342 344 345 346 347 348 349 349 351 351 350 349 347 344 341 335 333 335 335 332 328 324 323 325 329 329
333 335 338 336 329 327 326 321 322 329 337 341 338 336 336 333 330 334 336 336 340 343 348 354 352 351 347 335 328 330 330 330 332 332 332 334 334 336 338 337 339 339 338 340 340 340 341 340 338 337 335 333 332 331 332 333 332 332 333 335 338 341 343 346 347 348 349 349 350 350 349 348 345 342 337 333 334 336 334 331 326 324 324 327 331 332
335 338 337 332 329 333 332 325 326 332 333 335 338 337 336 334 332 336 337 334 336 338 341 349 350 346 342 334 329 330 331 333 336 333 332 334 335 335 337 338 338 339 338 340 339 338 338 335 334 334 333 333 332 332 333 333 332 333 333 333 336 338 341 344 346 347 348 349 349 349 349 346 344 341 336 334 336 337 334 329 326 324 326 330 334 334
334 340 339 330 329 339 338 330 328 329 328 338 348 340 333 331 329 334 341 337 334 335 335 340 344 343 342 337 330 329 333 339 341 335 332 333 335 336 338 339 338 338 338 337 336 335 334 333 333 334 334 335 334 332 332 332 332 333 333 333 334 336 339 342 345 347 348 349 349 348 348 346 343 341 337 335 337 337 333 329 327 328 330 334 335 332
333 341 345 340 335 336 335 333 336 335 333 341 347 338 332 330 329 336 340 335 337 338 332 332 336 337 337 334 329 331 339 343 341 335 332 333 334 336 338 337 336 335 334 333 333 332 332 333 333 333 335 337 335 332 331 332 333 333 333 333 334 336 338 341 344 346 347 348 348 348 346 345 343 341 339 337 338 337 332 328 328 330 333 335 334 330
350 351 345 340 340 340 340 339 338 337 337 339 338 335 331 330 331 335 334 332 338 338 330 328 332 330 329 328 330 336 342 341 339 337 334 333 333 333 335 334 332 332 332 332 333 333 333 335 334 334 337 336 334 333 333 334 334 333 333 334 335 337 340 342 344 346 347 347 347 347 346 345 344 342 340 339 339 337 332 328 329 332 334 335 333 327
353 352 340 337 341 342 343 340 334 336 341 338 333 332 330 329 330 332 333 336 336 332 329 329 330 329 328 328 331 337 338 336 337 337 335 334 333 332 333 332 331 333 333 334 335 335 335 336 335 335 336 335 336 337 336 335 334 334 335 335 336 340 343 344 345 346 346 347 346 346 345 345 344 342 340 340 338 335 332 330 331 334 335 335 332 327
342 345 341 341 341 338 340 341 335 337 340 333 329 330 330 331 332 333 335 336 331 329 331 332 331 332 333 333 334 336 337 339 339 338 336 336 335 335 336 335 334 336 337 337 337 336 335 336 336 336 336 337 338 339 337 336 335 335 336 337 339 342 344 345 346 345 345 346 345 345 345 344 343 342 340 339 337 334 332 332 333 335 336 336 335 333
343 343 340 341 339 337 342 341 332 334 336 330 332 340 340 337 336 333 333 333 330 331 333 333 334 337 337 338 339 339 340 342 340 337 336 335 335 336 336 334 333 333 334 334 334 333 334 336 337 337 338 339 340 339 338 337 337 337 339 340 343 345 345 345 346 345 345 345 344 344 344 343 342 340 338 338 337 334 332 332 334 335 336 337 337 337
347 346 343 341 338 337 343 340 331 332 333 329 334 342 339 335 334 332 334 334 333 333 334 334 336 337 336 338 339 337 337 338 336 336 335 334 334 334 333 332 331 331 331 331 331 333 335 337 337 339 341 342 341 341 340 339 339 340 342 343 345 345 346 346 345 345 344 343 343 343 342 342 341 339 338 338 337 335 333 333 333 334 334 336 337 337
340 344 345 343 338 335 336 337 333 331 329 328 332 335 333 333 335 334 335 337 336 336 337 337 337 336 336 336 336 335 336 336 335 336 335 334 335 334 333 333 332 331 332 332 333 334 335 336 337 340 342 343 343 343 341 340 341 343 344 344 345 346 346 345 344 344 343 342 342 341 341 340 339 338 338 339 338 336 334 333 333 333 333 334 335 336
333 335 340 343 341 337 334 333 331 330 328 327 329 332 333 335 335 334 335 335 335 336 337 336 336 336 333 331 331 332 333 331 331 331 330 331 332 331 331 332 331 331 332 332 332 333 333 334 337 339 340 342 343 343 343 342 342 343 344 345 346 345 344 343 343 343 342 342 341 340 339 339 338 338 338 339 339 337 335 334 334 333 333 333 334 336
332 333 337 338 339 343 343 338 333 330 328 326 326 329 331 330 329 329 330 329 329 330 332 333 335 335 334 331 331 331 331 329 328 328 327 326 327 327 328 328 329 330 331 331 332 334 335 337 339 340 342 343 343 343 343 343 343 343 344 346 345 343 342 341 340 340 340 340 340 339 338 338 337 338 338 338 338 338 336 335 334 333 333 334 336 337
331 332 336 335 336 341 343 338 331 327 326 325 325 326 326 325 325 325 324 323 324 325 325 326 328 329 330 331 330 331 332 331 330 329 328 327 327 327 327 327 329 330 331 332 335 337 337 338 339 341 343 343 343 343 344 344 343 343 345 345 343 341 341 340 339 338 338 338 338 338 337 337 337 337 338 337 337 337 336 335 335 334 334 334 335 337
328 332 335 334 334 335 334 332 330 329 329 327 326 325 325 325 326 326 325 325 325 325 325 325 325 325 325 326 326 327 328 329 329 328 328 328 328 327 328 328 328 328 331 335 337 337 337 338 338 339 340 341 342 343 344 344 343 344 345 345 342 340 339 338 338 337 337 336 337 337 336 336 336 336 336 336 336 335 335 334 333 332 332 331 333 335
327 333 335 333 334 334 332 330 330 331 332 329 326 325 325 325 326 326 326 327 326 326 327 327 326 326 326 325 326 326 326 327 327 326 327 329 330 330 330 330 328 328 331 333 334 335 336 337 337 337 338 339 341 342 343 343 344 345 345 343 340 338 337 337 337 337 336 336 336 335 335 334 334 335 335 335 334 333 332 331 329 328 329 331 333 334
326 329 331 332 334 333 331 329 327 328 329 327 325 324 323 324 325 325 324 325 325 325 326 326 325 326 326 325 326 327 327 328 328 327 327 328 330 331 332 332 331 330 330 330 331 334 335 336 337 337 337 339 340 341 342 343 344 344 344 340 337 337 336 337 337 336 335 335 333 331 329 328 330 332 331 330 329 327 326 325 326 327 330 331 332 332
Wind_Speed
10 5 3 6 7 7 8 9 9 7 8 8 7 5 7 6 7 8 3 2 10 10 9 8 4 6 10 11 15 22 24 21 21 21 23 26 27 28 29 31 33 36 37 34 32 32 30 30 29 28 28 27 27 26 25 26 25 23 22 21 19 18 18 19 20 19 19 21 21 21 20 19 17 16 16 15 14 14 12 15 16 12 10 13 12 8
8 7 6 8 10 10 9 9 8 7 7 6 6 5 5 5 6 6 2 2 6 7 5 4 5 6 8 9 13 19 19 19 24 24 24 27 27 29 30 32 34 35 35 34 34 34 32 32 31 30 31 30 30 29 28 28 26 25 23 22 20 18 19 19 19 19 19 20 20 19 17 16 16 15 15 14 13 13 13 14 14 12 12 14 10 8
5 6 8 9 8 7 6 6 8 7 6 5 4 5 4 4 4 4 4 5 6 5 4 3 4 3 3 7 11 16 19 22 29 28 26 28 28 29 32 34 35 34 34 35 36 36 34 33 32 32 33 32 31 30 29 29 27 26 25 24 21 20 19 18 18 19 19 18 17 16 14 14 15 16 15 15 14 14 14 14 14 14 14 14 12 12
4 6 8 8 7 8 4 4 8 5 4 4 4 5 3 3 3 3 4 7 6 2 2 5 2 3 1 4 7 16 21 19 23 25 25 27 30 33 37 37 37 36 36 36 36 37 36 35 34 34 35 34 32 31 31 30 29 28 27 25 23 21 20 18 18 18 17 16 16 15 15 15 17 17 16 16 16 16 16 16 16 16 16 15 14 14
5 6 7 9 7 9 6 4 7 5 2 3 5 6 4 4 5 3 4 6 4 2 2 6 4 5 4 7 7 12 17 15 17 21 22 26 31 34 34 34 36 38 39 38 38 38 38 38 37 35 35 34 33 32 31 30 29 28 27 26 24 22 20 19 19 18 17 17 18 19 18 19 19 19 18 18 18 18 18 18 17 17 16 16 16 15
7 5 8 11 7 8 7 4 6 7 4 3 5 8 8 8 6 4 8 9 4 2 3 5 1 6 4 9 9 7 10 13 15 17 22 26 29 30 30 32 35 38 39 39 39 39 38 39 37 36 35 34 34 33 31 29 29 28 27 25 24 23 20 19 20 19 19 19 20 21 21 21 21 21 21 20 19 18 18 17 16 16 16 17 17 15
5 5 7 8 7 8 7 5 6 8 6 3 6 10 10 8 8 8 10 8 4 4 5 6 5 5 4 6 10 8 9 13 13 13 19 26 29 30 32 34 37 38 39 39 39 39 39 39 39 38 37 36 35 34 31 30 28 28 27 26 24 23 21 20 20 20 20 21 21 21 21 21 22 22 21 19 18 18 18 17 17 16 16 17 17 16
5 7 6 6 7 7 6 5 6 8 8 3 6 9 10 9 9 12 11 7 5 2 1 4 4 2 5 6 8 10 9 11 12 13 16 24 30 33 35 37 39 41 41 41 41 40 41 41 41 41 39 38 36 34 33 31 29 28 27 26 24 23 23 22 21 22 22 22 22 21 21 22 22 21 19 17 17 17 17 17 18 17 17 17 17 16
4 9 9 8 6 4 5 6 8 10 6 6 6 8 9 9 9 10 10 6 3 4 1 3 3 2 6 6 2 8 10 11 15 18 17 23 31 34 37 39 41 42 43 43 44 43 43 43 43 42 41 39 37 35 34 33 30 28 27 26 25 24 24 23 23 23 23 23 22 22 22 22 21 19 18 17 17 18 17 17 17 17 17 17 17 16
3 8 11 10 6 5 6 5 9 12 6 5 6 6 5 5 5 6 7 4 3 3 5 7 6 5 6 5 1 6 9 13 16 17 18 24 31 35 37 40 42 42 43 43 44 44 44 43 42 42 41 40 38 36 35 34 32 30 28 28 27 26 25 25 25 25 25 24 23 24 24 22 20 18 18 18 18 18 17 16 16 17 17 17 16 16
4 5 7 8 6 8 8 5 9 14 9 5 7 6 6 5 4 3 1 3 4 1 6 10 12 9 6 5 4 6 10 16 16 14 15 20 28 35 39 41 43 43 43 42 42 43 43 42 41 41 42 41 39 38 37 36 34 32 30 29 29 27 27 26 26 26 26 26 25 25 24 22 20 18 18 18 18 17 17 16 16 17 16 16 15 14
5 3 3 4 8 9 7 4 6 9 6 5 5 5 4 2 3 4 4 3 3 4 7 9 10 8 7 6 6 11 15 17 16 15 15 18 27 37 40 42 44 44 43 42 42 42 42 42 42 43 44 43 41 40 40 39 37 34 32 31 30 29 28 28 28 28 28 27 27 26 24 22 20 19 19 18 17 16 16 16 16 17 16 16 15 14
4 5 4 4 6 9 8 4 3 1 1 5 4 5 4 2 2 1 1 1 3 6 6 5 8 5 7 8 8 12 14 14 15 18 21 22 29 37 39 42 43 42 42 42 42 43 43 44 45 45 45 44 44 43 41 40 38 36 34 32 32 31 30 30 30 31 30 29 28 26 25 23 21 20 19 18 16 16 15 15 16 17 17 17 16 15
3 5 5 4 5 6 9 6 3 2 3 6 6 5 5 3 2 3 3 1 2 6 5 3 8 4 5 7 10 13 16 20 23 28 32 28 27 33 38 40 41 41 42 43 43 44 45 46 47 47 46 45 45 44 43 41 40 38 36 34 33 33 32 32 33 33 32 31 29 27 25 24 22 21 19 18 17 16 16 15 16 17 17 17 17 17
4 5 6 7 4 6 9 7 7 6 5 6 5 6 6 5 5 4 3 3 4 3 2 2 5 5 4 4 8 12 16 23 27 30 29 22 18 24 31 35 36 38 41 43 44 46 47 48 47 47 46 46 45 44 43 43 41 39 37 35 35 35 34 34 35 35 34 33 31 29 27 25 23 22 20 18 16 16 16 15 16 17 17 17 17 16
5 6 7 7 6 7 7 6 8 8 4 5 3 5 5 6 6 2 3 6 5 1 1 2 3 5 5 6 7 5 7 13 20 22 21 18 15 18 26 32 36 38 41 43 45 46 47 47 47 47 46 45 45 44 44 44 43 41 39 37 37 37 36 36 37 37 36 35 33 31 29 27 25 23 22 19 18 16 15 16 16 17 18 18 17 16
4 6 6 5 5 6 9 8 8 8 5 2 3 4 5 6 7 3 2 1 3 2 2 2 3 3 2 7 8 4 6 10 11 13 17 19 17 20 27 34 37 40 42 44 46 47 47 47 47 47 46 45 45 44 44 44 43 42 40 39 39 38 37 38 39 39 38 36 35 33 31 29 27 25 23 21 19 17 16 16 18 18 19 18 17 17
4 5 6 6 7 9 11 11 6 8 9 5 4 7 3 3 3 3 2 1 2 2 4 2 5 4 2 3 7 4 8 12 9 9 12 12 16 23 29 34 38 42 44 45 46 46 46 46 47 47 47 46 45 44 44 43 42 42 41 40 40 39 40 41 42 41 40 39 37 36 34 32 29 27 24 21 19 17 16 18 19 20 20 18 17 17
5 4 7 6 9 7 7 8 6 7 7 4 4 6 5 3 2 1 3 2 1 3 3 3 3 3 5 5 5 6 11 13 12 10 8 9 16 24 29 34 38 40 42 43 44 44 44 45 47 48 48 47 45 44 43 43 43 42 42 41 42 41 41 42 43 43 42 41 40 38 36 33 30 28 25 23 20 18 18 19 20 20 19 17 17 17
5 4 6 4 6 3 3 6 8 8 4 2 4 4 2 3 5 3 3 4 4 4 3 2 2 3 6 7 7 10 13 13 13 11 8 11 20 28 31 33 36 38 41 42 43 44 45 46 47 48 49 48 46 44 43 44 44 43 43 43 43 43 42 42 44 45 44 42 41 40 38 35 33 30 26 24 21 19 19 19 20 20 18 17 18 17
3 4 5 4 2 2 2 6 9 9 5 3 4 4 2 1 2 2 1 3 4 4 3 3 3 5 7 6 9 13 13 13 14 12 10 14 24 32 32 32 34 38 41 42 43 45 46 46 47 48 48 48 46 45 45 45 45 44 44 44 44 44 44 44 46 47 46 45 43 43 41 38 35 31 27 24 22 20 18 18 18 18 17 17 18 17
3 3 5 4 2 4 6 7 8 9 9 8 6 6 6 4 3 2 4 1 2 3 4 5 4 7 7 5 9 12 11 11 13 13 11 16 26 30 29 31 35 39 41 42 44 45 46 46 46 46 47 47 46 46 46 46 45 45 45 45 46 46 46 46 47 48 49 47 46 46 44 40 37 33 28 26 24 21 19 18 17 17 18 18 17 16
6 4 5 6 5 6 9 7 5 7 8 7 6 6 8 6 6 6 6 3 1 1 2 3 3 7 7 6 8 9 7 9 13 13 12 17 23 24 26 31 35 37 40 41 42 44 45 45 45 45 45 46 46 47 47 47 47 46 46 46 47 48 48 47 48 49 49 49 49 49 47 42 38 34 30 28 27 24 21 19 17 17 18 18 18 16
5 3 4 5 4 4 7 5 2 3 4 4 5 4 7 7 7 7 6 5 4 3 3 2 3 6 6 3 4 6 6 9 14 18 18 19 20 20 24 30 33 36 39 40 41 43 43 43 43 43 44 45 46 47 47 47 47 47 46 46 48 48 48 48 49 49 50 51 52 52 49 45 41 37 34 32 30 27 26 24 20 18 18 18 19 17
6 3 4 4 3 4 5 5 5 3 3 4 4 4 6 7 6 3 2 3 4 5 6 5 4 6 6 4 1 4 7 7 11 18 21 19 18 21 25 29 33 36 38 39 40 40 41 41 42 43 43 44 45 45 46 46 47 47 47 47 47 47 48 49 50 50 51 53 53 53 50 46 43 40 37 35 32 30 28 26 25 21 18 19 20 19
8 4 6 7 6 7 7 6 7 5 3 3 3 6 8 8 9 5 3 4 6 5 5 6 5 6 7 5 4 5 7 6 9 15 19 21 21 22 25 30 34 36 38 39 39 39 41 41 42 42 42 42 42 42 43 44 44 46 47 46 47 47 47 49 50 50 51 52 53 53 50 47 46 44 41 38 35 33 30 27 27 25 21 21 21 21
3 3 7 10 11 10 9 9 7 5 5 5 5 8 8 8 11 8 5 5 6 4 4 6 6 6 7 7 8 7 6 8 8 9 15 22 24 25 27 31 34 36 37 37 37 38 39 39 40 40 39 40 40 40 40 40 41 43 44 44 45 46 47 47 48 48 51 52 53 53 52 51 50 48 44 41 38 36 33 30 30 28 25 24 23 23
2 3 7 10 14 15 14 13 9 7 7 8 9 10 10 9 11 10 7 7 6 6 6 9 6 8 9 9 10 10 8 7 7 9 16 23 27 28 28 29 31 32 33 34 35 37 38 38 38 38 37 37 37 37 38 37 38 40 40 41 42 45 46 47 47 48 50 53 54 55 54 52 52 50 47 43 40 38 35 34 35 32 28 27 26 25
3 5 6 8 12 16 15 13 10 8 7 7 8 10 10 10 11 12 12 11 9 8 10 8 9 10 10 10 12 12 11 11 13 18 23 24 24 25 25 26 29 32 33 33 34 36 37 37 37 36 36 35 34 35 35 35 37 37 37 39 40 43 45 46 47 48 50 52 53 54 53 51 51 50 47 45 42 39 37 36 35 32 30 30 27 26
3 5 6 9 11 14 15 12 9 9 8 7 8 9 9 10 12 13 13 12 12 12 11 9 12 13 11 11 13 13 12 13 12 15 18 20 22 24 24 27 31 34 34 34 35 36 36 36 35 34 34 33 33 33 32 33 34 34 35 37 39 41 43 44 45 47 48 50 50 50 49 49 50 49 49 50 46 39 36 34 32 31 32 32 30 29
2 4 3 6 7 10 12 11 9 10 11 11 12 11 9 8 9 10 10 7 7 9 7 5 9 11 9 8 9 7 7 9 9 12 18 21 24 26 27 30 33 34 33 34 34 34 33 33 33 33 33 32 31 30 30 30 31 32 34 36 37 39 41 42 44 45 47 48 48 48 47 48 50 48 51 55 49 40 37 37 35 34 33 34 33 30
1 2 2 4 3 7 7 10 11 10 8 11 13 13 11 9 7 7 7 7 7 8 4 4 6 9 9 6 5 3 6 9 9 12 17 20 23 27 30 32 33 32 32 33 32 32 31 32 32 32 32 31 30 30 30 30 30 31 32 34 36 38 39 40 42 44 46 46 46 47 47 48 48 47 51 55 52 44 43 43 40 36 35 36 33 27
2 1 2 3 3 7 7 9 9 6 4 7 10 11 13 11 8 6 5 6 8 8 7 6 8 8 6 6 6 5 6 8 11 16 20 22 25 29 31 31 30 30 31 32 31 31 30 30 29 28 29 29 29 27 25 24 24 24 25 28 32 35 37 39 41 42 44 44 45 46 46 46 46 46 49 54 53 48 45 43 40 37 37 37 32 25
1 2 1 3 3 6 7 4 4 4 6 7 6 8 11 12 13 11 7 7 9 6 4 6 7 4 2 7 10 11 10 11 17 23 25 26 29 30 29 29 29 30 30 30 29 28 27 26 25 24 23 21 18 13 10 10 10 12 15 20 26 30 34 37 39 41 42 43 44 44 44 44 43 44 49 52 51 46 41 39 37 37 37 37 32 27
3 1 2 2 2 4 2 4 4 5 8 7 5 5 8 12 15 11 4 3 6 6 5 7 7 6 6 7 9 10 8 7 9 13 15 17 22 26 27 28 29 29 29 28 26 24 22 20 17 14 11 8 7 7 5 3 2 5 9 15 20 24 29 33 36 39 40 41 42 42 42 42 41 44 48 49 45 39 35 35 36 37 38 37 33 29
5 3 2 1 2 2 0 4 6 7 5 4 4 1 2 4 8 9 4 1 4 5 6 7 7 7 6 6 6 7 9 9 7 5 5 9 13 18 24 27 28 27 25 22 19 16 14 12 10 10 10 10 11 10 6 3 1 4 7 11 15 19 24 28 33 36 38 39 40 40 40 40 40 44 47 44 38 32 32 34 36 38 37 35 32 30
3 1 0 2 2 2 2 2 3 2 2 2 2 1 3 3 4 6 4 3 4 4 5 6 5 4 4 4 8 14 17 14 9 6 2 7 12 14 18 21 21 19 16 14 14 14 14 14 13 12 11 11 12 8 4 2 3 5 6 9 12 16 20 24 29 33 35 37 38 38 39 39 41 44 46 44 34 28 29 32 36 37 35 33 32 32
4 1 2 2 1 2 3 1 0 1 2 5 5 2 2 2 3 4 5 3 3 3 2 5 5 5 6 6 10 16 15 10 4 3 3 5 11 12 13 14 15 15 16 17 17 17 16 15 14 13 12 12 11 6 2 3 4 4 5 7 10 13 17 21 26 29 32 34 35 36 37 38 40 43 44 42 31 25 27 31 33 34 33 31 31 30
4 1 4 2 2 1 3 3 3 4 4 4 5 4 5 4 2 3 6 2 5 5 3 4 4 5 8 11 11 11 9 6 4 3 4 7 13 17 19 21 22 22 21 20 18 16 15 14 13 13 13 13 9 4 3 4 5 5 5 7 9 13 17 20 23 25 27 29 32 34 35 37 39 40 40 37 26 21 24 30 32 32 32 30 28 28
4 3 3 3 3 3 2 2 2 3 2 3 4 6 10 9 1 6 5 3 5 6 2 7 3 1 9 17 15 8 5 6 5 1 5 9 14 18 22 23 23 22 21 19 17 15 14 13 12 12 12 10 6 4 4 5 5 5 6 8 11 15 18 18 19 21 23 27 30 32 33 35 36 37 36 32 24 18 22 29 30 28 28 26 25 27
4 2 2 2 2 4 1 2 1 2 3 3 6 10 12 7 3 6 4 6 3 3 5 12 10 5 7 13 14 9 8 12 13 11 11 12 15 18 20 20 19 18 17 16 14 12 11 10 9 8 7 6 5 5 4 5 6 7 8 11 14 16 16 15 17 20 22 26 28 29 31 32 33 34 33 28 21 17 21 27 27 24 22 21 22 26
4 1 2 2 2 4 2 2 0 2 2 5 12 12 6 2 4 4 3 2 4 7 12 17 18 19 19 19 18 18 18 21 23 23 21 20 20 21 20 18 17 16 15 14 13 11 10 8 6 3 2 4 5 6 6 7 8 10 11 13 13 13 12 12 15 18 20 23 25 27 28 29 30 32 30 26 21 20 25 29 28 24 20 18 20 22
3 2 2 1 2 3 2 2 2 3 2 13 15 8 4 3 4 3 3 5 9 16 21 21 22 28 31 28 26 26 25 25 27 29 28 26 25 24 22 20 19 16 15 13 11 9 8 6 4 3 3 4 6 7 8 9 11 12 12 12 11 9 9 10 12 16 18 21 23 25 25 26 29 30 28 26 25 26 26 28 29 25 20 18 18 19
4 3 2 2 2 1 2 1 1 4 7 15 10 3 4 4 7 8 8 8 11 18 24 25 26 30 34 32 30 30 29 27 27 27 26 25 24 22 20 19 17 15 13 11 9 8 7 5 4 4 4 5 6 8 9 10 12 12 11 10 9 8 8 9 11 14 17 19 21 22 23 24 27 28 26 27 29 29 25 24 27 27 22 19 19 21
4 5 6 3 2 2 2 3 3 3 10 14 10 12 13 15 18 19 18 18 18 19 22 26 28 30 33 34 33 32 30 27 26 24 23 22 20 19 17 15 14 13 11 10 9 8 7 6 5 4 5 6 7 9 10 11 12 11 10 9 8 8 8 9 11 14 16 17 18 19 20 21 23 23 23 25 28 29 27 25 28 31 27 22 22 24
1 7 8 4 3 3 1 4 7 8 13 15 13 19 24 25 24 26 28 29 27 25 26 28 28 29 31 33 34 32 28 26 26 24 22 20 18 16 15 13 11 11 10 9 8 7 6 6 5 5 5 6 8 9 11 12 12 11 10 10 9 8 9 10 11 12 13 14 15 16 17 19 20 20 20 21 23 26 29 30 30 30 28 25 26 26
3 4 3 4 6 5 2 3 7 9 12 14 13 19 26 28 27 29 32 30 28 29 30 28 27 27 28 29 30 29 26 24 24 23 20 19 17 14 12 10 9 8 8 6 6 6 6 6 5 5 6 7 8 10 11 12 12 11 11 11 10 10 10 10 10 10 11 12 14 15 17 18 19 18 19 20 21 23 27 28 27 27 27 26 26 25
4 6 4 2 5 4 4 5 4 10 13 11 10 15 21 25 27 29 31 30 28 29 29 26 25 24 25 24 23 22 22 21 20 20 18 16 15 12 10 8 6 4 3 2 3 3 3 3 4 5 7 8 9 11 12 12 12 11 11 12 11 11 11 10 9 9 10 11 13 14 16 17 17 17 18 21 22 22 22 23 23 24 24 23 21 20
7 6 3 2 4 6 6 8 10 12 10 8 8 13 17 21 23 25 27 25 23 23 23 23 21 20 20 20 18 16 15 14 14 14 13 11 11 10 8 6 5 3 2 1 1 1 2 3 4 5 7 8 9 11 12 12 12 12 13 13 13 12 12 12 11 11 11 11 11 12 13 14 16 17 19 20 21 21 21 21 21 21 20 18 17 16
5 3 2 2 4 5 7 9 10 10 6 4 7 12 16 20 22 23 23 21 18 18 17 17 18 16 15 15 12 9 8 8 8 8 7 6 7 7 7 6 5 2 1 1 2 2 2 3 4 5 6 7 9 10 11 12 12 13 14 14 13 12 12 12 12 12 12 11 10 11 12 14 19 22 21 21 21 19 18 18 17 17 18 17 14 12
5 4 4 1 2 3 8 10 9 9 10 10 11 15 19 21 24 27 27 25 23 22 20 19 19 19 18 17 13 10 10 10 9 7 5 4 3 3 4 4 3 1 1 1 2 2 3 3 4 5 6 7 8 9 11 12 13 14 14 12 10 8 8 10 11 12 12 11 12 12 12 13 18 21 19 17 16 15 15 16 16 16 16 14 12 11
Wind_Direction
166 163 180 185 187 180 181 179 175 167 152 154 154 161 177 192 235 230 277 260 168 173 211 193 174 186 181 184 184 184 186 193 198 198 200 201 202 205 207 211 213 215 218 218 217 217 218 219 219 219 219 219 217 216 215 213 211 207 205 207 209 209 210 212 212 212 215 216 219 222 225 230 235 240 242 243 251 257 257 259 264 263 264 270 269 257
165 186 207 198 193 182 184 185 157 131 134 138 145 162 180 199 235 231 249 258 176 179 221 167 152 204 197 188 186 181 185 198 201 199 201 202 203 206 209 214 217 219 221 220 219 218 219 219 220 220 220 220 219 218 217 216 214 211 210 211 212 212 213 213 213 214 218 220 223 227 231 238 243 246 247 248 251 255 254 257 264 262 260 262 253 243
176 216 214 202 187 158 156 168 146 135 141 132 132 147 183 215 224 222 185 165 174 207 253 147 157 239 222 193 193 189 196 204 203 202 203 203 203 206 210 214 217 220 221 222 221 219 219 219 219 220 220 220 220 220 220 218 216 214 214 215 215 216 218 218 218 219 222 227 230 233 239 245 251 252 251 252 252 251 250 249 250 248 248 249 246 253
190 240 215 185 156 141 132 146 138 128 135 134 138 149 200 222 176 217 191 154 152 180 184 130 117 315 191 185 215 209 210 213 209 210 211 208 208 210 212 214 215 217 219 220 221 220 219 219 219 220 221 220 220 221 221 219 217 216 216 217 217 218 221 222 223 224 226 229 233 236 240 245 249 250 248 249 247 243 241 238 239 240 240 243 250 263
219 251 182 151 152 159 152 147 140 137 181 203 179 164 176 197 196 209 158 138 106 35 111 108 54 315 199 186 219 216 216 223 217 214 216 217 216 216 217 216 216 218 219 220 221 221 220 219 219 219 220 220 220 221 222 221 219 219 219 220 221 222 225 225 226 227 226 225 229 231 234 239 242 241 240 239 237 234 233 236 239 239 238 243 252 263
239 246 150 144 163 166 154 165 169 163 183 252 215 187 179 177 182 153 131 128 110 266 228 125 100 289 234 202 213 203 208 220 216 212 217 220 220 220 220 218 218 220 221 221 222 223 221 220 219 219 220 220 222 223 224 225 223 223 224 223 224 226 228 228 228 228 227 227 228 229 231 233 234 233 233 234 234 234 235 240 243 240 239 244 252 260
229 200 146 148 163 163 165 188 200 169 150 250 228 190 181 160 146 147 144 140 151 214 217 165 190 267 293 230 212 195 205 217 216 216 219 219 219 220 219 219 219 219 220 221 223 223 222 221 220 220 221 221 223 225 226 227 226 226 227 227 227 228 229 229 228 228 228 229 231 232 234 234 232 232 233 236 238 237 237 241 243 243 245 248 252 256
195 184 170 158 154 156 172 199 211 164 141 236 225 170 160 148 152 161 157 167 177 141 141 167 175 272 287 252 207 185 202 222 224 226 222 219 219 219 219 220 219 219 219 220 220 221 221 222 222 222 222 223 224 226 226 226 226 226 227 229 229 229 229 228 228 229 228 230 232 233 235 233 233 234 237 241 241 238 238 239 241 245 247 248 250 252
186 188 189 171 164 177 192 200 186 161 163 236 204 152 151 153 162 166 165 190 172 109 205 224 158 199 264 279 208 175 198 223 227 227 223 218 217 218 219 220 220 221 221 220 220 221 221 222 223 224 224 224 225 226 226 226 226 226 226 227 228 228 228 228 228 228 228 230 232 233 233 231 232 235 236 239 239 238 241 241 240 241 242 244 247 251
221 200 190 169 175 201 206 203 165 163 198 222 156 114 93 103 122 154 170 174 102 125 217 218 182 196 260 278 177 169 203 224 227 227 224 219 216 217 218 219 220 221 221 221 221 222 223 224 223 224 224 225 226 226 226 227 227 227 226 226 228 228 227 227 228 227 227 228 230 231 230 231 233 234 236 238 238 239 242 241 237 237 241 245 250 254
271 228 185 170 188 191 193 198 169 176 188 146 114 90 65 55 63 83 107 103 102 232 240 213 192 195 248 262 193 183 207 214 218 226 226 219 216 218 219 219 220 220 220 221 221 222 224 225 224 223 224 226 227 227 227 227 227 227 227 227 227 228 228 227 226 226 226 226 228 228 228 231 232 234 237 239 239 241 242 239 238 242 247 252 257 258
288 254 212 203 194 171 164 190 192 196 185 133 104 101 107 19 31 40 12 62 134 243 253 218 191 192 237 254 219 216 220 213 210 218 220 213 213 215 216 217 219 219 219 219 220 221 221 222 222 221 223 225 226 227 227 226 226 227 227 228 227 227 227 226 225 224 224 224 225 225 226 229 230 232 236 238 240 244 245 244 246 250 253 256 258 256
265 233 247 259 211 167 151 169 205 242 136 133 117 103 128 258 349 83 264 95 177 240 256 188 159 189 246 249 235 230 235 229 218 219 220 214 212 212 213 215 217 217 217 218 219 220 220 221 221 221 222 223 224 225 226 226 226 226 227 228 227 226 225 225 223 222 221 221 221 222 223 226 227 229 233 235 239 244 247 250 252 255 257 258 258 257
273 269 242 237 247 190 164 159 179 201 155 154 150 138 152 168 172 218 238 355 223 253 290 142 153 203 271 261 240 228 231 230 224 224 225 222 215 212 212 213 215 215 215 217 218 218 220 221 222 222 222 223 223 225 226 226 226 226 228 228 226 225 224 223 222 220 220 219 218 219 221 223 225 227 230 232 236 241 245 250 254 258 259 260 261 261
201 257 221 204 228 192 179 177 164 151 158 180 165 148 161 162 169 209 205 190 213 244 330 103 154 193 217 253 243 229 234 231 228 233 234 233 226 214 211 211 212 214 215 216 218 219 221 222 222 222 222 223 224 224 225 225 225 226 227 227 224 221 220 221 220 219 218 218 217 217 219 222 224 226 228 231 235 240 244 250 255 258 258 258 261 260
192 242 243 231 224 182 185 190 149 129 161 210 149 130 183 185 167 191 190 180 179 157 129 164 204 219 217 285 296 288 281 246 232 239 240 235 224 205 203 207 210 212 214 215 217 218 220 221 221 221 222 223 224 224 225 224 225 226 227 226 222 219 218 218 217 217 217 217 216 217 218 220 222 225 228 230 234 238 243 251 255 257 257 258 258 256
182 250 260 232 232 206 187 177 162 165 180 183 147 175 210 176 147 158 217 164 126 181 245 190 223 273 305 300 293 295 296 269 239 234 231 224 209 193 197 204 207 210 213 215 217 219 219 219 220 221 222 224 224 224 225 225 226 226 226 224 221 219 218 217 215 215 216 216 216 216 218 220 222 225 227 229 232 236 243 249 251 251 252 253 255 254
166 254 268 200 217 236 198 182 197 193 164 134 182 198 172 117 111 124 179 19 66 221 264 196 196 220 166 277 293 274 253 260 255 235 225 210 195 195 201 205 207 210 212 216 218 219 219 218 219 220 222 225 226 226 227 227 227 227 227 225 222 219 217 215 214 215 215 216 217 217 218 220 223 226 228 230 232 235 241 246 246 245 246 249 251 251
167 240 283 210 204 227 181 181 238 232 186 148 177 173 138 156 217 137 172 185 154 214 265 277 246 224 195 224 269 240 228 241 250 240 214 191 194 201 206 207 208 209 211 213 216 218 218 218 218 219 222 225 227 229 230 230 229 229 229 227 224 222 219 217 216 217 217 218 219 220 221 222 225 227 228 230 230 232 238 243 245 245 245 247 246 247
167 208 272 239 203 192 135 177 217 229 222 79 121 151 142 170 178 176 168 166 187 204 225 269 285 252 227 217 210 217 223 227 236 236 216 202 205 208 209 208 205 205 208 211 214 217 219 219 219 220 223 225 227 229 230 230 230 230 229 227 225 224 222 221 220 218 218 219 221 223 224 225 226 227 227 227 228 231 236 242 245 246 246 245 244 245
171 196 236 266 240 183 198 207 204 203 183 137 163 180 180 144 139 188 188 132 154 175 177 202 236 253 247 209 195 213 220 218 219 222 222 215 212 214 212 207 204 204 208 212 215 219 221 220 220 221 223 226 227 227 227 229 231 231 230 229 227 225 223 222 221 220 220 220 222 225 226 226 226 227 226 226 227 228 236 245 248 248 247 244 243 243
189 188 209 235 224 205 236 232 200 186 172 169 187 186 179 168 138 193 246 228 126 165 177 177 210 258 251 196 198 215 216 219 217 210 218 222 218 217 212 208 207 207 209 214 219 221 221 221 220 221 222 224 224 226 228 229 231 231 231 230 228 226 225 224 222 222 222 222 224 226 226 226 226 226 224 224 225 224 228 240 250 254 248 241 241 238
177 156 190 219 226 224 240 240 192 181 175 177 199 192 180 177 163 182 220 233 213 206 149 136 198 264 260 203 205 217 212 226 225 214 221 229 225 219 211 209 210 211 213 218 222 222 222 222 221 221 222 223 225 227 229 229 230 231 231 231 230 228 227 226 225 224 225 226 227 228 227 226 226 225 222 221 223 220 219 226 242 254 249 240 239 233
174 152 182 224 273 268 265 283 253 172 154 189 236 199 176 189 188 185 186 179 192 200 151 143 235 264 274 246 220 228 225 233 230 219 220 227 226 217 210 209 210 212 216 220 221 222 222 222 221 221 221 222 225 228 229 230 232 232 232 232 232 231 230 229 228 228 229 229 229 230 230 228 227 224 221 220 220 218 216 217 223 237 246 241 236 229
193 194 169 196 254 257 264 288 273 236 178 197 227 191 179 181 169 150 102 145 210 216 171 169 227 250 273 309 316 226 217 229 234 226 225 226 222 213 208 208 210 213 216 218 218 219 219 220 221 221 222 224 226 229 230 232 234 234 234 233 234 234 233 231 230 230 231 231 232 234 234 231 228 225 223 221 219 218 218 216 212 218 233 238 235 230
188 197 168 184 209 218 219 224 230 222 196 215 216 188 188 175 163 158 112 162 226 234 167 170 212 248 279 299 282 231 202 216 239 232 227 226 223 217 210 208 211 213 215 216 216 218 219 220 222 223 225 227 229 231 233 234 236 237 236 236 236 236 235 233 231 231 232 234 235 236 236 233 229 227 225 222 219 218 218 214 208 209 218 230 235 232
161 197 186 193 202 210 212 216 213 170 162 210 215 195 197 187 176 167 143 179 201 176 185 214 200 212 256 257 249 244 215 217 231 223 219 220 219 218 213 211 212 213 215 216 216 217 219 220 223 225 227 230 232 234 236 237 238 239 238 239 239 236 235 234 232 232 234 235 236 237 237 235 232 230 226 222 219 218 215 212 212 212 214 223 228 227
100 226 209 203 208 215 215 212 201 170 178 200 201 200 203 193 177 171 187 203 167 146 231 251 193 189 229 227 225 235 224 219 222 212 215 216 214 213 212 211 212 213 214 215 215 217 219 221 224 227 230 233 234 236 238 239 241 241 242 243 240 236 235 235 234 234 236 237 238 238 237 236 235 231 225 221 221 219 215 216 219 217 214 216 218 218
147 220 210 201 220 229 226 217 193 180 199 198 192 202 202 191 180 184 204 201 162 174 232 231 182 193 223 222 219 222 212 206 208 207 211 214 213 212 209 208 210 213 214 214 215 218 220 221 225 228 231 234 235 237 239 241 242 243 245 245 241 237 237 237 236 236 238 239 239 239 238 236 235 229 220 218 220 218 216 217 220 219 216 214 212 213
158 229 208 192 222 237 234 227 195 187 214 219 209 209 198 189 188 195 210 201 182 207 227 198 187 207 219 213 217 223 215 206 204 201 204 209 209 207 205 206 210 213 213 214 216 219 220 223 226 228 231 233 236 240 243 245 246 248 248 246 241 239 239 238 237 238 240 241 241 240 238 237 235 229 219 216 215 212 211 213 216 222 222 218 216 217
145 249 231 168 217 244 234 229 212 197 213 228 233 232 214 196 194 204 219 202 190 228 240 170 187 225 238 218 217 227 203 183 184 191 200 207 207 203 202 207 210 212 212 215 218 219 221 223 225 228 231 235 240 245 247 250 252 252 250 247 244 242 241 240 240 241 242 243 243 241 239 239 237 230 222 217 210 205 208 213 219 223 220 220 221 223
121 252 323 104 196 253 230 220 222 207 208 233 243 242 230 212 202 208 208 184 185 211 203 135 182 235 246 220 198 193 167 170 190 196 198 206 207 203 203 207 209 211 213 215 217 219 222 223 226 230 234 238 242 245 248 252 254 254 253 252 250 248 245 244 243 244 245 245 245 243 242 241 237 230 224 218 211 208 212 217 221 220 214 217 223 226
139 145 334 119 190 261 242 211 208 184 187 243 246 232 226 218 208 211 204 189 190 179 162 182 215 234 228 178 174 195 184 189 209 203 196 199 202 205 207 208 208 211 215 218 219 221 224 225 228 232 236 241 245 249 254 258 260 262 264 262 259 255 252 250 248 248 248 248 247 245 244 242 235 228 223 218 214 214 217 219 221 218 212 215 225 230
67 81 275 175 182 258 256 195 148 154 202 238 239 208 207 207 205 209 208 198 195 178 177 227 240 240 177 168 186 201 200 207 216 210 203 200 198 199 203 206 210 214 217 220 221 223 225 227 230 235 240 245 247 246 250 256 260 269 269 265 263 260 257 255 253 252 252 250 249 246 244 240 233 224 219 216 211 211 217 223 223 216 211 216 227 236
322 340 239 193 180 257 279 102 131 217 229 242 254 215 202 203 195 188 181 198 202 201 221 250 252 237 218 209 207 203 195 202 211 206 203 204 202 199 199 203 208 212 215 217 219 221 223 224 225 225 220 210 187 167 159 174 246 273 271 268 266 262 261 260 257 255 254 251 249 246 241 236 229 220 216 211 206 209 222 230 223 213 212 218 228 238
250 250 222 166 177 234 112 133 192 238 251 241 246 221 107 155 155 139 114 249 227 207 203 223 242 237 226 227 212 180 156 135 117 129 178 198 204 206 206 205 206 210 214 216 214 208 197 185 174 161 156 153 148 144 137 130 229 262 271 274 272 268 266 263 259 257 255 252 249 245 239 233 224 217 213 207 207 219 231 228 217 212 214 220 230 242
230 186 278 265 225 165 164 207 225 279 317 216 229 73 92 117 150 146 145 197 224 216 197 213 237 210 170 164 154 146 138 123 95 62 100 180 194 204 209 208 205 204 199 184 171 161 150 145 143 145 152 153 147 141 137 168 231 253 264 272 274 272 269 265 262 259 255 252 249 243 239 232 222 217 213 209 213 232 235 222 212 211 215 222 234 245
257 140 155 233 273 107 117 118 112 142 203 217 243 262 97 98 204 178 125 135 236 257 180 190 201 165 141 130 141 141 126 107 98 33 50 151 175 176 176 176 168 159 152 147 146 145 142 144 148 154 164 165 159 156 176 211 231 247 256 267 274 275 272 267 263 258 254 253 250 243 238 231 224 222 217 212 219 238 232 217 211 212 216 226 238 245
277 8 115 115 341 343 136 145 180 185 200 238 263 303 5 0 248 159 99 120 265 316 45 145 183 177 150 133 131 131 112 112 199 272 35 116 149 150 149 148 142 139 142 144 146 147 147 154 164 172 175 172 171 186 212 218 227 236 250 264 272 273 271 268 266 264 261 256 249 243 237 230 228 228 222 219 231 245 227 214 213 216 222 233 243 246
339 358 52 51 335 282 171 155 209 203 221 285 304 328 328 322 345 105 107 194 265 324 51 129 127 199 155 135 121 107 105 142 179 305 63 118 141 140 140 141 139 141 146 148 151 154 155 163 171 173 173 176 194 225 226 222 226 235 251 263 266 267 269 272 272 270 262 253 246 242 238 234 234 233 227 228 242 245 221 211 213 220 230 241 249 247
329 342 43 68 309 288 232 151 216 256 250 289 317 320 317 322 89 117 181 215 263 343 114 118 105 103 132 124 114 109 116 123 119 101 97 117 130 128 130 135 137 139 139 137 139 140 138 142 146 151 168 196 225 231 216 213 223 238 252 259 264 268 271 274 272 266 258 251 246 241 239 239 239 235 233 238 245 234 216 211 215 227 241 252 255 249
256 227 50 58 327 302 263 151 191 250 229 334 327 323 341 66 159 196 215 165 121 117 112 104 102 104 101 96 99 107 112 112 109 104 102 105 109 110 112 116 118 120 118 117 118 116 113 116 120 129 194 226 225 215 209 218 233 246 255 262 270 275 275 271 267 262 257 253 249 244 242 242 238 234 237 243 237 222 215 213 216 231 250 262 263 257
196 131 56 32 252 283 291 72 83 176 286 336 332 331 35 84 188 193 67 88 112 112 104 97 98 103 101 99 99 101 104 103 102 101 100 99 100 101 102 104 103 103 103 103 103 102 100 105 117 144 192 210 210 212 219 234 247 255 261 269 276 275 265 258 257 257 256 252 249 246 244 242 237 233 237 238 225 213 211 212 217 231 255 273 277 275
165 142 147 191 215 297 331 341 179 212 304 335 351 58 54 69 121 108 81 83 95 99 100 96 95 99 103 103 100 98 97 95 94 96 96 95 96 98 99 99 100 102 104 105 110 119 120 125 141 160 183 201 213 224 238 252 259 263 267 268 264 253 245 245 246 249 250 248 246 245 242 239 235 233 236 235 224 214 214 218 223 235 257 284 293 290
191 166 158 162 190 187 208 259 272 322 346 1 50 89 80 84 96 92 83 76 70 77 90 93 94 99 104 103 100 96 95 94 94 94 94 95 97 99 101 105 108 111 115 118 126 135 140 149 164 179 197 218 233 245 256 263 265 266 263 252 242 237 236 237 241 243 245 244 243 242 239 235 233 233 235 235 227 220 220 225 230 236 252 279 294 291
197 143 139 134 162 169 137 345 352 9 8 15 56 91 94 91 89 86 83 77 70 72 79 83 89 96 100 101 99 96 94 96 95 94 93 94 97 100 103 109 113 118 124 131 139 147 155 166 185 206 221 241 255 262 268 269 266 261 252 239 231 230 230 234 238 239 241 242 240 238 234 230 230 231 232 233 229 223 222 227 233 241 254 274 286 286
41 77 96 138 153 147 113 346 350 5 10 19 52 86 94 94 93 91 89 85 83 84 81 77 81 86 89 93 96 97 99 99 96 94 92 90 91 93 95 99 110 119 125 136 150 162 172 182 203 230 246 260 271 277 279 275 265 255 243 233 227 223 223 227 228 228 232 234 232 230 226 223 224 227 229 232 231 226 227 234 244 253 261 272 280 282
355 354 353 160 152 119 135 162 93 47 32 31 62 88 94 96 96 94 93 92 91 90 88 84 81 79 79 80 81 87 94 95 94 97 96 91 89 85 77 79 92 97 102 132 165 180 195 210 234 256 266 274 282 286 285 278 265 251 240 231 225 220 217 214 211 212 217 220 222 223 220 218 220 223 228 233 234 231 233 240 248 255 262 272 280 280
325 318 329 148 128 86 103 148 125 87 51 29 65 85 91 96 97 95 97 99 94 90 88 87 83 80 81 80 74 73 78 81 86 95 97 99 101 94 80 77 76 58 33 308 274 287 283 279 281 283 285 287 288 288 285 276 261 247 238 232 228 224 219 213 206 202 204 207 213 216 213 214 219 221 223 227 227 225 228 235 244 255 271 285 289 282
347 314 0 88 154 139 147 170 152 121 120 151 118 99 97 100 99 96 95 93 88 84 82 82 83 82 82 82 76 66 64 65 76 93 105 112 113 110 108 107 98 78 39 340 326 313 300 293 287 284 285 288 288 286 280 269 253 241 237 235 235 233 225 215 206 200 197 194 192 190 193 206 216 217 215 215 217 220 228 240 252 268 282 290 290 283
350 312 321 317 198 139 139 153 143 112 116 133 126 112 105 102 98 93 90 87 83 82 80 80 83 84 85 86 84 77 71 67 66 74 91 99 108 129 133 128 129 142 126 10 333 310 300 295 291 293 295 293 289 283 272 259 245 238 236 236 235 229 215 207 202 193 183 175 174 180 189 200 207 210 210 212 218 228 241 253 264 275 284 289 291 289